Location: Baix
(44.7118°N, 4.7648°E)
Time: 19:13:16
(UTC+00:00)

Okean 2 Rocket - Pass Details

Date: 07 August 2020
Orbit: 616 x 642 km, 82.5° (Epoch: 24 September)

Event Time Altitude Azimuth Distance (km) Brightness Sun altitude
Exits shadow 00:41:45 55° 35° (NE) 766 3.7 -27.7°
Drops below altitude 10° 00:45:22 10° 13° (NNE) 2,029 6.7 -27.5°
Sets 00:47:38 0° 11° (N) 2,947 7.8 -27.4°
